Location: B�chelbach
(48.7000°N, 8.2000°E)
Time: 14:57:36
(UTC+00:00)

Daily predictions for brighter satellites

Satellite Brightness Start Highest point End
(mag) Time Altitude Azimuth Time Altitude Azimuth Time Altitude Azimuth
Cosmos 1455 2.2 20:07:51 10° N 20:11:42 78° ENE 20:15:34 10° SSE
Cosmos 1825 Rocket 4.0 20:12:15 10° SSE 20:16:28 45° E 20:20:45 10° NNE
ATLAS CENTAUR R/B 2.5 20:14:54 10° NNW 20:18:15 30° NE 20:21:31 10° ESE
Cosmos 1703 3.4 20:17:16 10° S 20:21:02 52° E 20:24:50 10° NNE
Cosmos 1812 Rocket 4.0 20:17:38 10° NNW 20:21:56 61° W 20:26:12 10° S
COSMOS 2428 3.8 20:17:30 10° SSE 20:22:01 25° ESE 20:26:34 10° NE
Cosmos 1844 3.8 20:17:48 10° NNW 20:23:38 77° ENE 20:29:21 10° SSE
Cosmos 2322 4.1 20:20:22 10° S 20:25:44 43° ESE 20:31:07 10° NE
Cosmos 1602 Rocket 4.3 20:25:33 10° SSW 20:29:53 56° WNW 20:34:17 10° N
Cosmos 2263 Rocket 4.4 20:27:36 10° NW 20:31:27 19° W 20:35:17 10° SW
Nadezhda 1 Rocket 4.4 20:26:08 10° NNW 20:32:31 71° W 20:38:51 10° S
Cosmos 1709 Rocket 4.2 20:26:28 10° S 20:32:37 60° E 20:38:53 10° NNE
MetOp-B 4.5 20:29:19 10° S 20:34:38 67° WSW 20:40:00 10° NNW
Atlas Centaur 2 4.1 20:32:01 10° SSW 20:35:21 15° S 20:38:47 10° SE
Terra 2.7 20:31:41 10° SE 20:36:02 37° ENE 20:40:26 10° N
Cosmos 2237 Rocket 4.0 20:33:32 10° ESE 20:36:03 13° E 20:38:33 10° ENE
CARTOSAT-1 3.9 20:32:57 10° SSE 20:37:07 54° ENE 20:41:20 10° N
Cosmos 2333 4.4 20:32:03 10° S 20:37:29 51° ESE 20:43:00 10° NE
Cosmos 2219 Rocket 2.8 20:32:54 10° S 20:37:57 36° ESE 20:43:02 10° NE
Cosmos 2360 Rocket 2.3 20:34:05 10° SSW 20:39:44 87° WNW 20:45:27 10° NNE
IGS 5A 3.6 20:36:08 10° S 20:40:17 75° WSW 20:44:29 10° NNW
Cosmos 2333 Rocket 2.5 20:42:17 10° S 20:47:41 46° ESE 20:53:08 10° NE
ATLAS 2AS CENTAUR R/B 3.8 20:43:33 10° NW 20:50:53 43° NNE 20:57:39 10° ESE
Cosmos 1315 Rocket 3.3 20:47:00 10° N 20:50:59 47° ENE 20:54:13 15° SE
Resurs 01 Rocket 3.5 20:48:36 10° SSW 20:52:18 26° W 20:56:02 10° NW
Cosmos-2242 3.4 20:50:11 10° NNW 20:54:29 62° W 20:58:47 10° S
Cosmos 1818 3.8 20:49:37 10° SW 20:55:03 79° NW 21:00:33 10° NE
Cosmos 773 Rocket 4.0 20:52:27 10° SSW 20:57:43 72° ESE 21:03:00 10° NNE
SL-16 R/B 4.1 20:53:50 10° WSW 20:58:58 35° NW 21:04:09 10° NNE
Cosmos 2221 3.4 20:55:22 10° N 20:59:26 36° ENE 21:02:29 16° SE
ERS-1 Rocket 3.0 20:56:51 12° SSE 21:01:33 86° WSW 21:06:38 10° NNW
GEOS 3 Rocket 3.7 20:57:50 10° NE 21:03:16 87° SE 21:08:40 10° SW
USA 215 3.3 21:00:11 10° ENE 21:06:39 57° SE 21:13:04 10° SW
Cosmos 2278 Rocket 2.8 21:03:00 10° NNW 21:08:33 50° NE 21:13:09 15° SE
Cosmos 1892 4.2 21:07:01 16° ESE 21:08:42 21° E 21:11:35 10° NE
ATLAS 5 CENTAUR R/B 2.0 21:07:35 10° SW 21:11:45 65° NW 21:16:30 10° NE
Meteor 1-11 4.2 21:06:41 10° S 21:12:19 90° ENE 21:18:03 10° NNE
Cosmos 1844 Rocket 3.7 21:08:05 10° NW 21:13:13 39° WSW 21:18:16 10° S
Cosmos 1400 Rocket 4.1 21:10:07 10° NNW 21:13:46 35° W 21:17:22 10° SSW
Gblst 52 Del rocket 4.3 21:08:55 10° WNW 21:14:36 83° SSW 21:20:33 12° ESE
SPOT 5 3.1 21:13:56 14° S 21:18:18 71° WSW 21:23:07 10° NNW
Lacrosse 5 rocket 3.7 21:16:57 10° WNW 21:20:29 25° N 21:23:51 10° NE
SL-16 R/B 4.2 21:19:24 10° ESE 21:20:29 11° E 21:21:34 10° E
USA 81 4.2 21:19:57 10° S 21:25:13 79° W 21:30:32 10° N
Cosmos 2058 3.7 21:25:00 21° SE 21:27:05 34° E 21:30:52 10° NNE
BREEZE M DEB (TANK) 3.2 21:25:45 10° W 21:27:34 20° SSW 21:27:39 20° SSW
Cosmos 2181 Rocket 4.3 21:22:22 10° NNW 21:28:41 68° W 21:34:15 13° S
Cosmos 1408 4.1 21:29:05 18° ESE 21:30:10 21° E 21:32:55 10° NE
In-Cosmos 22 Rocket 4.4 21:29:55 19° SSE 21:33:26 49° E 21:38:33 10° NNE
Cosmos 2074 Rocket 4.0 21:29:15 15° S 21:34:24 70° E 21:40:35 10° NNE
TSX-5 3.8 21:31:51 10° NNW 21:35:17 65° ENE 21:37:36 23° SE
Cosmos 1076 Rocket 4.1 21:36:08 23° SSE 21:38:16 41° E 21:42:18 10° NNE
Cosmos 1680 Rocket 4.2 21:35:41 21° SSE 21:38:37 38° ESE 21:43:31 10° NE
USA 267 3.3 21:34:04 14° ESE 21:39:57 90° SSW 21:46:33 10° NW
Cosmos 2084 3.9 21:41:27 10° NW 21:45:47 51° SW 21:48:05 25° S
Cosmos 1842 Rocket 3.7 21:41:58 10° NNW 21:46:18 67° W 21:49:02 22° S
JB-3 4.1 21:43:52 10° NNE 21:47:44 79° ESE 21:49:57 24° S
Cosmos 2151 4.4 21:47:18 20° ESE 21:48:50 24° E 21:52:18 10° NE
MTI 3.6 21:48:36 10° N 21:51:42 80° WNW 21:53:11 28° SSW
Cosmos 923 Rocket 4.0 21:52:20 19° S 21:56:03 67° ESE 22:01:19 10° NNE
Cosmos 2327 Rocket 4.5 21:52:14 20° S 21:56:35 71° E 22:02:41 10° NNE
ATLAS CENTAUR R/B 2.2 21:53:48 10° NW 21:57:08 32° WSW 21:58:26 24° SSW
Cosmos 1825 3.2 21:58:09 26° ESE 21:59:13 31° E 22:02:35 10° NNE
Cosmos 2369 Rocket 4.4 21:56:30 10° N 22:00:26 19° NE 22:04:22 10° E
ALOS 2 3.9 21:58:03 18° ESE 22:00:28 31° ENE 22:04:20 10° N
Cosmos 1980 3.7 21:56:55 19° S 22:00:52 61° ESE 22:06:27 10° NE
Cosmos 967 Rocket 4.5 21:56:39 10° SSW 22:03:06 77° SE 22:09:35 10° NE
Cosmos 44 4.5 22:05:15 20° ESE 22:05:22 20° ESE 22:08:34 10° ENE
COSMOS 2428 3.2 22:00:16 10° SW 22:05:52 60° WNW 22:11:31 10° NNE
Cosmos 1869 4.1 22:03:24 10° NNW 22:07:13 45° W 22:09:22 23° SSW
GP-B 4.4 22:05:48 10° NNE 22:09:39 28° E 22:11:23 22° ESE
NOSS 0 Rocket 3.9 22:07:31 12° SSW 22:13:15 85° ESE 22:19:27 10° NNE
Terra 3.2 22:10:33 14° SSW 22:13:51 30° W 22:18:02 10° NNW
Cosmos 1624 Rocket 4.1 22:08:49 10° NNW 22:14:04 68° ENE 22:16:57 26° SE
NOSS 3-4 (A) 3.8 22:07:29 10° NW 22:14:27 87° SW 22:19:46 22° SE
NOSS 3-4 (C) 3.8 22:07:35 10° NW 22:14:33 88° SW 22:19:55 22° SE
Cosmos 2237 Rocket 2.1 22:14:58 19° SSW 22:19:08 78° ESE 22:24:52 10° NNE
SL-4 R/B 3.5 22:19:54 10° ENE 22:19:54 10° ENE 22:19:59 10° ENE
Genesis I 3.3 22:18:36 37° S 22:19:46 52° SE 22:23:35 10° NE
Cosmos 2344 3.6 22:16:02 17° SSW 22:21:46 56° ESE 22:29:33 10° NE
Cosmos 2219 Rocket 3.3 22:16:31 10° SW 22:21:49 43° NW 22:27:11 10° NNE
Elektron 1 4.3 22:21:21 26° SW 22:23:10 76° SE 22:28:40 10° NE
Atlas Centaur 2 4.5 22:20:22 10° SW 22:21:21 12° SSW 22:21:21 12° SSW
DELTA 2 R/B (1) 4.3 22:24:53 10° SW 22:29:41 30° S 22:30:03 30° SSE
Thor Agena Rocket 3.4 22:25:15 10° NNE 22:30:25 88° ESE 22:33:18 26° SSW
Cosmos 2333 Rocket 3.7 22:26:51 10° WSW 22:32:05 36° NW 22:37:23 10° NNE
Cosmos 2221 4.3 22:33:14 10° NNW 22:36:50 25° W 22:39:20 15° SW
Iridium 2 4.2 22:37:21 10° NNW 22:41:06 53° W 22:42:26 34° SSW
BREEZE-M DEB (TANK) 1.2 22:37:37 10° WNW 22:41:18 69° SSW 22:41:22 69° S
Cosmos 1371 Rocket 4.1 22:36:34 10° NNW 22:41:48 67° WSW 22:44:15 32° S
ATLAS 2AS CENTAUR R/B 2.9 22:34:50 10° NW 22:42:22 69° SW 22:46:25 27° SSE
EO 1 Del DPAF 3.3 22:39:45 10° N 22:43:30 69° WNW 22:44:59 34° SSW
Cosmos 1892 4.1 22:41:59 18° SW 22:44:12 32° WNW 22:47:39 10° N
MOS 1-B Rocket 4.4 22:37:27 10° NNE 22:45:20 87° WNW 22:49:57 22° SSW
Cosmos 1766 Rocket 3.7 22:44:24 37° SSE 22:45:54 61° E 22:50:15 10° NNE
Gbstr 26 Del rocket 4.5 22:49:28 19° ESE 22:49:28 19° ESE 22:51:16 10° E
Okean 3 Rocket 3.5 22:47:03 38° S 22:48:43 75° E 22:53:10 10° NNE
Cosmos 1328 Rocket 3.7 22:44:33 10° N 22:48:51 61° ENE 22:50:25 36° SE
Aureole 2 Rocket 1.7 22:46:04 10° NNW 22:48:54 89° NE 22:48:59 84° SSE
USA 215 3.7 22:43:16 10° NE 22:49:45 63° NNW 22:56:12 10° WSW
Cosmos 1606 2.7 22:47:18 10° N 22:51:13 82° E 22:52:19 45° SSE
Cosmos 2112 Rocket 4.3 22:48:24 20° SW 22:52:09 67° WNW 22:57:31 10° NNE
Cosmos 2278 Rocket 3.4 22:47:29 10° NW 22:52:24 31° WSW 22:54:59 21° SSW
Cosmos 2297 3.7 22:48:25 10° NNW 22:54:12 89° ENE 22:57:11 30° SSE
Cosmos 2218 Rocket 4.2 22:50:54 29° SSE 22:54:14 63° E 23:00:27 10° NNE
Cosmos 158 Rocket 4.4 22:52:56 19° SW 22:56:22 56° WNW 23:01:13 10° NNE
Cosmos 1420 Rocket 4.0 22:52:44 10° NNW 22:58:03 83° ENE 23:00:36 32° SSE
Cosmos 2366 rocket 4.1 22:56:35 29° SSE 22:59:54 66° E 23:06:12 10° NNE
Lacrosse 5 rocket 2.9 22:56:46 10° NW 23:00:30 34° NNE 23:04:03 10° E
Cosmos 1943 Rocket 2.8 22:55:15 10° NNW 23:00:50 54° NE 23:04:40 20° SE
Cosmos 1633 3.8 23:01:11 27° ESE 23:01:44 28° E 23:04:53 10° NNE
SL-16 R/B 2.2 23:00:46 31° S 23:03:28 66° ESE 23:09:07 10° NNE
Cosmos 1408 4.1 23:03:24 20° WSW 23:05:02 28° WNW 23:08:11 10° NNW
Cosmos 2056 Rocket 4.0 23:00:28 10° NNW 23:05:42 50° WSW 23:07:58 31° SSW
Cosmos 1959 Rocket 4.4 23:06:20 31° S 23:09:30 78° E 23:15:43 10° NNE
YAOGAN 11 4.4 23:09:09 32° SE 23:10:57 58° ENE 23:15:18 10° N
Cosmos 1743 Rocket 4.4 23:12:36 30° SE 23:13:53 37° E 23:17:54 10° NNE
Cosmos 2341 Rocket 4.3 23:11:46 24° SSW 23:15:36 62° WNW 23:21:47 10° N
Cosmos 332 Rocket 3.7 23:14:36 10° NNW 23:19:26 82° ENE 23:21:28 35° SSE
USA 267 4.1 23:21:24 27° SSW 23:23:28 32° SW 23:29:15 10° WNW
Meteor 2-3 Rocket 3.7 23:21:02 33° S 23:23:41 80° E 23:29:25 10° NNE
IRIDIUM 104 4.5 23:23:26 32° SSW 23:25:50 68° W 23:31:04 10° N
Cosmos 2151 4.2 23:23:52 22° WSW 23:25:58 35° WNW 23:29:55 10° N
Helios 1A 2.9 23:24:53 44° S 23:26:10 81° WSW 23:30:21 10° NNW
Cosmos 405 3.2 23:24:52 10° N 23:28:23 62° ENE 23:29:08 48° SE
Meteor 1-26 Rocket 4.4 23:26:26 10° NNW 23:32:28 76° W 23:35:20 32° S
Cosmos 1452 Rocket 3.5 23:27:34 10° NNW 23:32:51 77° WSW 23:35:06 35° S
CZ-4C R/B 3.4 23:26:58 10° NW 23:33:52 62° NE 23:41:55 10° ESE
SL-8 Rocket 4.3 23:30:59 25° SSW 23:34:33 59° WNW 23:40:40 10° N
Cosmos 1825 4.1 23:32:56 16° WSW 23:34:46 22° WNW 23:37:48 10° NNW
COSMOS 2455 2.8 23:28:45 10° NW 23:34:50 87° WSW 23:38:24 26° SSE
PSLV R/B 4.2 23:31:19 10° NNE 23:35:21 43° E 23:36:34 34° SE
Cosmos 1340 2.8 23:34:23 44° SW 23:35:22 63° WNW 23:39:08 10° N
ALOS 2 3.7 23:35:27 27° SW 23:36:46 32° W 23:40:44 10° NNW
Cosmos 1933 4.1 23:33:25 10° NNW 23:37:13 41° W 23:38:13 34° SW
Cosmos 1408 Rocket 3.7 23:35:56 38° SSW 23:37:30 68° WNW 23:41:55 10° N
SL-16 R/B 4.3 23:33:29 10° ESE 23:38:33 27° ENE 23:43:38 10° N
Cosmos 1151 Rocket 3.8 23:34:41 10° NNW 23:38:45 39° W 23:40:03 31° SW
Cosmos 1727 Rocket 4.0 23:38:40 10° NNW 23:44:53 72° W 23:48:04 31° S
APEX 3.4 23:42:21 10° NW 23:44:22 36° WNW 23:44:22 36° WNW
Cosmos 2369 Rocket 2.2 23:39:47 10° NNW 23:45:25 78° ENE 23:48:49 25° SE
Resurs 1-4 Rocket 4.3 23:42:30 10° NE 23:45:31 15° E 23:48:33 10° ESE
Cosmos 44 3.5 23:43:38 24° WSW 23:46:08 59° NW 23:50:33 10° NNE
Cosmos 1500 Rocket 3.5 23:44:49 41° S 23:46:17 76° E 23:50:41 10° NNE
GP-B 4.3 23:43:00 10° NNW 23:46:59 32° W 23:48:50 23° WSW
SL-4 R/B 3.4 23:48:59 12° WNW 23:48:59 12° WNW 23:49:20 10° NW
Cosmos 371 Rocket 3.9 23:44:26 10° NW 23:48:59 41° WSW 23:50:25 32° SW
ISS -1.2 23:51:00 11° ESE 23:51:00 11° ESE 23:51:19 10° E
SeaSat 1 4.2 23:46:12 10° ENE 23:49:43 19° ESE 23:51:20 17° SE
Helios 1B rocket 2.7 23:50:06 10° NNE 23:54:10 56° E 23:55:23 39° SSE
CREW DRAGON DEMO-1 DEB 3.3 23:54:49 23° W 23:56:31 60° NNW 23:59:33 10° ENE
